EHI
0 0 0 0 0 0 0 0 1 1 1 4 8 11 13 15 15 14 13 16 21 24 24 22 18 15 13 13 14 16 16 17 17 17 17 17 18 18 19 17 14 12 13 13
0 0 0 0 0 0 0 0 1 1 1 4 7 10 12 13 13 11 10 14 19 23 26 24 20 17 14 13 14 16 18 19 19 18 18 19 20 21 21 19 15 13 12 11
0 0 0 0 0 0 0 0 1 2 2 4 7 11 13 12 10 8 8 12 17 21 24 25 22 20 17 15 15 17 18 20 20 20 20 20 20 22 24 21 17 15 13 11
0 0 0 0 0 0 0 0 1 4 5 6 8 13 15 13 11 8 8 12 14 16 19 22 22 22 21 20 20 20 20 21 22 23 23 20 19 20 22 20 18 17 16 15
0 0 0 0 0 0 0 0 2 6 8 7 9 13 17 16 13 9 9 12 13 13 15 18 20 22 23 24 24 23 24 25 26 26 25 22 19 19 19 19 18 17 17 18
0 0 0 0 0 0 0 0 2 5 7 7 8 13 17 16 12 9 8 11 12 11 12 16 20 21 22 23 23 23 25 27 28 26 24 22 20 20 19 19 19 17 18 20
0 0 0 0 0 0 1 3 4 6 7 8 10 15 16 13 10 7 7 9 11 11 12 15 18 19 18 18 18 20 22 23 23 22 20 19 19 20 19 18 18 18 20 21
0 0 0 0 0 1 4 6 8 8 9 11 12 13 11 8 8 9 10 11 12 14 15 16 17 17 15 13 13 16 18 18 18 18 18 18 20 21 18 16 16 17 18 19
0 0 0 0 1 2 4 6 8 8 9 10 10 9 7 7 9 12 14 14 14 15 17 16 16 16 14 12 11 13 16 17 17 17 18 20 22 21 18 15 14 15 16 17
0 0 0 0 1 3 4 5 6 7 8 8 8 9 10 11 12 14 15 14 14 15 15 15 15 14 14 13 13 14 16 16 16 15 16 18 19 19 17 15 15 16 17 17
0 0 0 1 2 4 5 6 7 7 8 8 9 11 13 14 13 13 13 14 14 14 13 13 13 11 10 10 12 13 14 13 13 13 13 14 14 14 13 13 13 14 15 15
0 0 0 1 2 4 6 8 8 8 9 8 8 10 12 12 10 9 11 11 11 11 10 10 10 8 6 5 7 10 11 11 11 11 12 12 12 10 10 9 8 8 9 8
0 0 0 1 2 4 6 7 7 8 8 7 6 7 9 9 7 6 7 7 7 6 6 7 7 6 4 3 5 8 9 9 9 10 11 11 11 10 9 7 5 4 4 4
0 0 0 0 1 3 5 6 5 5 5 5 4 5 7 8 6 4 4 5 4 4 4 5 5 5 5 5 6 7 8 8 9 9 10 10 10 9 8 6 5 4 3 2
0 0 0 0 1 3 4 4 3 2 2 2 2 4 7 8 7 5 3 3 3 2 3 3 3 4 5 7 7 7 7 7 7 8 8 8 7 6 5 4 4 4 4 3
0 0 0 0 1 2 3 3 1 0 0 0 1 3 5 6 5 4 2 2 2 2 2 1 1 2 4 6 7 7 6 5 4 4 4 5 4 3 3 3 3 3 4 5
0 0 0 0 0 1 2 2 1 0 0 0 1 1 2 3 3 3 3 3 4 4 3 2 1 2 4 6 6 6 5 3 2 1 1 1 1 1 1 2 2 2 3 4
0 0 0 0 0 0 1 1 0 0 0 0 0 0 1 2 3 4 5 5 5 4 3 3 2 3 5 6 5 5 4 3 2 1 0 0 0 0 0 1 1 1 1 2
0 0 0 0 0 0 0 1 1 0 0 0 0 0 1 2 5 6 7 7 5 4 3 2 2 3 4 3 3 3 3 2 2 1 0 0 0 0 0 0 0 0 0 1
1 1 0 0 0 1 1 1 1 0 0 0 1 1 0 2 4 6 6 5 4 3 2 1 1 2 2 1 1 1 1 1 1 0 0 0 0 0 0 0 0 0 0 0
2 1 0 0 0 1 1 1 1 0 0 0 1 1 0 0 1 2 2 2 1 1 1 0 1 1 1 0 0 0 0 0 0 0 0 0 0 0 0 0 0 0 1 1
2 1 0 0 0 1 1 0 0 0 0 0 1 1 0 0 0 0 0 0 0 0 0 0 0 0 0 0 0 0 0 0 0 0 0 0 0 0 0 0 0 1 2 2
1 0 0 0 0 0 0 0 0 0 0 0 0 0 0 0 0 0 0 0 0 0 0 0 0 0 0 0 0 0 0 0 0 0 0 0 0 1 1 1 1 2 3 3
0 0 0 0 0 0 0 0 0 0 0 0 0 0 0 0 0 0 0 0 0 0 0 0 0 0 0 0 0 0 0 0 0 0 0 0 0 1 2 2 3 3 3 3
0 0 0 0 0 0 0 0 0 0 0 0 0 0 0 0 0 0 0 0 0 0 0 0 0 0 0 0 0 0 0 0 0 0 0 0 0 1 2 3 3 3 3 3
0 0 0 0 0 0 0 0 0 0 0 0 0 0 0 0 0 0 0 0 0 0 0 0 0 0 0 0 0 0 0 0 0 0 0 0 0 0 1 2 3 3 3 3
0 0 0 0 0 0 0 0 0 0 0 0 0 0 0 0 0 0 0 0 0 0 0 0 0 0 0 0 0 0 0 0 0 0 0 0 0 0 0 1 3 3 3 3
Wind_Speed
8 6 7 9 10 11 13 13 12 8 7 3 2 2 3 3 4 5 5 4 4 4 4 3 3 4 4 3 3 4 4 4 4 3 4 4 4 4 4 4 4 4 4 4
9 9 9 10 11 11 12 12 10 9 6 1 2 3 3 3 4 4 4 4 3 3 3 3 3 4 4 4 5 5 4 4 3 3 3 4 4 4 4 4 4 4 4 4
10 8 10 13 11 11 10 9 10 10 4 4 4 4 4 3 4 4 3 3 3 3 3 3 4 4 5 4 4 4 4 4 4 4 4 3 3 3 4 4 4 4 4 4
9 8 14 5 1 5 7 6 7 5 3 4 4 4 3 3 2 3 2 3 3 3 3 3 3 4 4 4 4 4 4 4 4 4 4 4 3 3 3 3 4 4 4 4
9 13 12 7 5 5 7 7 5 6 5 4 4 5 5 2 2 2 2 2 2 2 2 2 3 3 3 3 3 3 3 3 3 4 4 4 4 4 4 3 4 4 4 4
10 12 12 4 4 2 6 7 3 4 5 5 6 6 3 3 3 3 3 3 2 2 3 2 2 2 3 3 3 3 2 3 3 3 4 4 4 4 3 3 4 4 3 3
12 12 7 3 3 5 8 0 3 2 3 4 3 1 4 4 4 4 4 4 3 3 3 2 2 2 2 2 2 2 2 2 3 3 4 3 3 3 3 4 4 4 3 3
10 12 6 4 3 3 3 4 2 2 2 2 3 4 4 4 4 5 5 5 4 3 3 3 2 2 1 1 0 1 2 3 3 3 3 3 3 3 3 4 4 4 3 3
5 2 4 2 1 2 2 2 2 2 2 3 4 4 4 4 4 4 4 4 4 4 4 3 3 2 1 1 1 1 2 2 2 3 3 3 3 4 4 4 3 3 3 3
3 2 2 2 1 1 1 1 1 2 2 3 4 4 4 4 4 4 4 3 4 3 3 3 3 2 2 1 1 1 1 2 2 3 3 2 3 3 3 3 3 3 4 4
4 2 3 3 2 1 1 2 2 3 2 2 4 4 4 4 4 3 3 3 3 3 2 2 2 2 2 2 1 1 1 1 2 2 2 2 2 1 2 2 1 3 3 3
3 2 2 1 1 1 2 3 3 3 3 2 3 4 4 4 3 3 3 3 2 2 2 2 2 2 2 2 1 1 1 1 2 2 1 2 1 1 0 1 1 2 2 4
2 1 1 1 2 2 2 3 3 3 4 3 3 3 3 3 3 3 3 2 2 1 1 2 1 1 1 1 1 1 2 2 2 2 1 1 2 2 2 2 3 4 4 4
1 2 2 2 2 3 3 3 3 3 3 3 3 2 2 2 3 2 2 1 1 1 1 1 0 1 1 1 1 1 2 1 1 2 2 2 2 3 3 3 3 3 4 5
2 3 2 2 2 3 3 4 4 4 3 2 2 2 2 2 2 1 1 1 1 1 0 0 1 2 2 1 1 2 2 2 1 2 3 2 3 3 3 4 3 3 2 3
2 2 3 3 4 4 4 4 4 3 3 2 2 2 1 1 1 1 1 0 1 1 1 1 2 3 3 3 2 2 1 1 2 3 3 3 3 3 3 4 4 3 3 2
4 4 4 4 4 4 4 4 3 3 2 2 1 1 1 1 1 1 1 0 1 1 1 2 3 3 3 3 3 2 2 1 3 3 3 2 3 3 3 4 4 4 3 1
4 3 3 4 4 4 3 3 2 2 2 1 1 1 1 1 1 1 1 1 1 1 2 2 3 3 3 2 3 3 2 2 2 3 2 2 3 3 4 4 4 5 4 2
4 3 2 2 3 3 3 2 2 1 1 1 1 1 1 1 1 1 1 2 2 2 2 2 2 3 2 2 3 3 3 3 3 3 3 2 4 4 4 4 4 4 4 4
4 3 3 3 3 2 2 2 2 1 1 1 1 1 1 1 1 2 2 3 2 3 2 2 3 3 3 2 4 4 3 4 4 3 3 3 4 4 4 4 4 5 4 4
4 4 4 3 3 2 2 2 2 1 1 1 1 2 2 2 2 2 3 3 1 2 2 2 3 2 2 3 4 4 4 4 4 4 4 4 4 4 4 5 5 5 4 4
4 4 4 4 3 2 2 1 1 1 1 1 1 1 2 2 2 3 3 3 2 1 3 3 2 2 3 5 5 5 5 5 5 5 5 5 5 5 5 5 5 5 4 4
3 3 3 3 2 2 2 1 1 1 1 1 1 2 2 2 3 3 3 2 2 2 4 3 2 2 4 5 5 5 6 6 5 5 5 5 5 5 5 6 5 5 4 4
3 2 2 2 2 2 1 0 1 1 1 1 1 1 2 2 2 2 3 1 1 2 4 1 0 2 6 5 5 5 5 5 5 5 5 5 6 6 5 5 6 5 5 5
2 2 2 2 1 1 1 1 1 1 1 1 1 1 1 2 2 2 3 3 2 3 4 2 3 4 6 5 5 5 5 4 5 5 6 6 6 6 6 6 6 6 5 5
1 1 2 1 1 0 0 1 1 0 0 1 1 1 2 2 2 2 2 3 3 3 4 3 3 4 4 5 5 5 5 4 5 5 6 7 7 7 6 6 7 6 5 5
2 2 1 1 1 0 0 0 0 0 1 1 2 2 2 2 2 3 3 3 3 3 3 3 3 4 4 4 4 4 4 5 5 5 6 6 6 6 6 7 6 5 5 6
Wind_Direction
260 260 238 234 227 225 236 253 266 268 262 254 225 192 170 162 156 154 152 153 155 158 161 169 173 179 179 182 186 192 187 185 191 200 202 201 204 208 203 208 210 204 206 206
237 236 235 237 236 234 237 244 249 255 253 251 151 163 172 173 167 165 164 165 165 164 166 178 188 190 188 189 194 191 190 194 186 189 190 195 202 205 202 204 212 212 212 211
242 222 235 238 234 238 236 241 246 249 242 195 184 179 187 179 177 178 176 170 171 171 180 191 198 196 196 195 193 191 196 196 186 186 182 189 201 198 202 203 205 210 218 220
245 227 242 249 227 242 245 247 248 240 214 210 198 180 168 172 174 169 175 176 185 183 177 183 185 187 196 185 187 196 199 197 193 191 187 186 194 202 206 206 208 213 217 222
243 240 243 216 197 219 235 238 235 215 200 190 172 176 161 134 151 153 149 154 173 168 151 156 159 167 177 178 177 189 196 198 198 197 199 199 200 205 207 208 208 217 217 222
237 249 252 232 138 192 241 228 188 203 197 185 189 218 150 132 131 122 111 105 99 100 107 106 115 159 171 175 177 189 200 205 203 202 206 207 205 208 205 208 211 217 208 217
239 245 247 63 130 196 231 100 109 168 185 184 196 349 103 116 110 107 105 103 103 100 100 98 112 142 164 171 187 198 199 197 189 194 202 201 203 209 211 212 214 219 212 217
238 245 234 83 164 230 23 55 102 122 134 142 120 105 113 115 112 107 106 101 98 96 84 77 88 118 127 147 255 220 204 201 190 197 211 183 195 207 212 217 214 212 217 231
264 289 58 109 118 42 38 89 102 113 121 136 135 128 124 117 111 103 97 94 91 91 86 74 66 69 70 27 317 253 223 210 202 206 214 207 201 201 202 204 221 219 220 234
246 177 134 137 114 80 74 111 110 121 138 149 141 131 123 115 108 100 94 92 93 94 88 81 70 51 28 6 331 269 246 229 214 205 208 208 225 214 213 216 224 233 238 241
228 190 187 192 181 137 105 109 116 125 132 138 141 136 129 124 117 109 104 97 93 93 86 73 68 51 24 10 347 306 259 250 247 227 210 220 232 263 251 252 268 262 264 259
263 189 231 183 149 178 159 141 134 128 123 127 137 137 132 126 125 127 120 110 104 98 82 68 57 45 19 2 349 325 306 293 271 255 227 230 222 238 129 240 172 221 273 283
317 329 331 123 154 166 162 146 141 140 136 133 126 133 139 136 141 142 140 135 120 103 79 64 57 40 351 334 335 323 311 309 301 292 255 243 245 250 250 215 203 216 226 240
238 223 200 178 164 154 149 144 140 133 126 125 125 127 133 139 140 146 149 150 130 103 78 58 19 353 333 315 313 300 286 290 277 286 280 265 259 261 263 264 246 228 206 208
213 240 219 166 150 153 154 155 151 146 141 137 136 142 139 142 143 139 123 137 155 166 120 331 321 329 323 296 280 277 280 290 299 297 285 278 270 266 266 266 264 261 241 193
219 205 182 173 170 172 173 171 167 160 156 152 141 134 132 144 160 165 138 183 237 267 312 309 309 313 304 295 284 271 276 307 282 276 274 272 270 272 273 271 271 270 267 267
215 201 188 184 183 180 182 181 175 165 157 152 136 121 128 150 172 189 218 259 298 304 301 304 307 306 298 292 285 284 283 245 235 257 266 273 276 277 277 276 277 280 276 280
231 223 209 197 188 182 181 179 172 157 152 146 138 164 190 202 223 240 280 302 302 302 322 316 314 302 296 302 299 294 283 276 269 273 277 280 287 280 276 275 275 275 278 248
209 201 194 191 193 190 184 178 175 152 133 162 198 238 255 254 262 273 291 285 281 286 317 341 329 283 288 312 301 273 277 277 277 278 276 273 270 277 281 281 279 279 280 279
188 175 171 171 170 170 167 160 165 162 163 190 239 255 262 267 280 278 271 275 299 327 324 317 286 287 290 297 290 281 282 281 280 279 273 271 272 276 279 282 284 282 279 276
172 168 169 165 157 153 154 162 177 189 201 217 248 263 268 266 264 268 271 276 325 321 294 261 265 285 298 318 278 281 282 282 281 280 277 274 272 272 274 278 280 280 279 278
160 158 155 148 145 145 140 149 178 207 221 229 252 263 267 264 269 273 274 291 299 301 278 279 292 358 343 307 283 286 283 277 275 276 276 276 273 270 269 272 274 276 280 284
137 139 141 145 146 134 123 122 137 176 214 220 240 262 271 285 289 287 285 310 307 323 293 302 359 8 311 285 286 284 277 274 275 277 279 279 278 275 275 273 272 274 276 278
104 114 123 128 129 132 141 151 141 145 189 214 225 273 284 282 285 300 321 353 328 295 289 323 358 289 277 275 279 279 278 279 280 280 279 278 277 275 276 275 274 274 274 277
106 113 115 119 125 122 129 153 153 161 214 247 254 270 288 307 316 325 323 316 323 283 290 275 225 253 271 284 284 285 286 290 293 290 284 278 276 278 279 278 275 273 271 271
98 93 83 82 68 70 145 147 144 141 227 287 333 356 346 340 327 321 309 306 310 296 289 294 289 272 284 292 293 292 291 286 277 274 278 280 278 278 279 280 279 277 276 271
136 128 124 108 100 85 85 119 285 337 336 328 336 343 335 331 326 322 313 308 307 301 301 302 300 294 293 295 296 294 293 293 291 288 287 285 283 282 283 280 278 279 279 277